When you browse on this site, cookies collect data to enhance your experience and personalize the content and advertising you see.
Visit our Privacy Policy to learn more. By continuing to use the site, you agree to this use of cookies and data.
  • In Österreich
  • Länderverzeichnis
  • Für 7 Tage
  • Wassertemperatur
  • Satellitenkarten
  • Wetterkarte
  • News
  • Widgets
  • user-avatar
    Anmelden

    Stündliche Wetter Santa Fe

    Heute, 24 März, Sonntag

    Zeit Temperatur Niederschläge Wind Luftdruck Luftfeuchtigkeit
    00:00 +22°C° 0 mm 1 m/S 758 mmHg 61%
    01:00 +21°C° 0 mm 1 m/S 759 mmHg 63%
    02:00 +21°C° 0 mm 1 m/S 759 mmHg 65%
    03:00 +20°C° 0 mm 1 m/S 759 mmHg 66%
    04:00 +20°C° 0 mm 1 m/S 759 mmHg 68%
    05:00 +20°C° 0 mm 1 m/S 759 mmHg 70%
    06:00 +20°C° 0 mm 2 m/S 760 mmHg 66%
    07:00 +21°C° 0 mm 3 m/S 760 mmHg 62%
    08:00 +23°C° 0 mm 4 m/S 761 mmHg 58%
    09:00 +26°C° 0 mm 4 m/S 761 mmHg 50%
    10:00 +27°C° 0 mm 4 m/S 761 mmHg 43%
    11:00 +29°C° 0 mm 4 m/S 762 mmHg 35%
    12:00 +30°C° 0 mm 4 m/S 761 mmHg 30%
    13:00 +32°C° 0 mm 5 m/S 761 mmHg 25%
    14:00 +33°C° 0 mm 5 m/S 760 mmHg 19%
    15:00 +32°C° 0 mm 5 m/S 760 mmHg 19%
    16:00 +30°C° 0 mm 5 m/S 760 mmHg 19%
    17:00 +30°C° 0 mm 4 m/S 759 mmHg 18%
    18:00 +27°C° 0 mm 4 m/S 760 mmHg 23%
    19:00 +25°C° 0 mm 4 m/S 760 mmHg 27%
    20:00 +21°C° 0 mm 3 m/S 760 mmHg 32%
    21:00 +20°C° 0 mm 3 m/S 761 mmHg 36%
    22:00 +19°C° 0 mm 3 m/S 761 mmHg 40%
    23:00 +18°C° 0 mm 3 m/S 761 mmHg 44%

    Morgen, 25 März, Montag

    Zeit Temperatur Niederschläge Wind Luftdruck Luftfeuchtigkeit
    00:00 +18°C° 0 mm 3 m/S 762 mmHg 48%
    01:00 +17°C° 0 mm 3 m/S 762 mmHg 52%
    02:00 +16°C° 0 mm 2 m/S 762 mmHg 57%
    03:00 +16°C° 0 mm 2 m/S 762 mmHg 60%
    04:00 +15°C° 0 mm 2 m/S 762 mmHg 63%
    05:00 +14°C° 0 mm 2 m/S 762 mmHg 66%
    06:00 +14°C° 0 mm 3 m/S 762 mmHg 63%
    07:00 +16°C° 0 mm 3 m/S 763 mmHg 60%
    08:00 +17°C° 0 mm 3 m/S 763 mmHg 57%
    09:00 +19°C° 0 mm 3 m/S 763 mmHg 48%
    10:00 +22°C° 0 mm 3 m/S 763 mmHg 39%
    11:00 +25°C° 0 mm 3 m/S 763 mmHg 30%
    12:00 +26°C° 0 mm 3 m/S 763 mmHg 27%
    13:00 +27°C° 0 mm 3 m/S 762 mmHg 23%
    14:00 +28°C° 0 mm 3 m/S 762 mmHg 20%
    15:00 +27°C° 0 mm 3 m/S 762 mmHg 21%
    16:00 +26°C° 0 mm 3 m/S 761 mmHg 22%
    17:00 +25°C° 0 mm 3 m/S 761 mmHg 24%
    18:00 +24°C° 0 mm 3 m/S 762 mmHg 26%
    19:00 +22°C° 0 mm 3 m/S 762 mmHg 28%
    20:00 +20°C° 0 mm 2 m/S 762 mmHg 30%
    21:00 +19°C° 0 mm 2 m/S 763 mmHg 35%
    22:00 +18°C° 0 mm 2 m/S 763 mmHg 40%
    23:00 +17°C° 0 mm 2 m/S 764 mmHg 45%

    übermorgen, 26 März, Dienstag

    Zeit Temperatur Niederschläge Wind Luftdruck Luftfeuchtigkeit
    00:00 +16°C° 0 mm 2 m/S 764 mmHg 52%
    01:00 +15°C° 0 mm 2 m/S 764 mmHg 59%
    02:00 +14°C° 0 mm 2 m/S 764 mmHg 66%
    03:00 +14°C° 0 mm 2 m/S 764 mmHg 69%
    04:00 +13°C° 0 mm 2 m/S 765 mmHg 71%
    05:00 +13°C° 0 mm 2 m/S 765 mmHg 74%
    06:00 +14°C° 0 mm 2 m/S 765 mmHg 70%
    07:00 +15°C° 0 mm 2 m/S 766 mmHg 67%
    08:00 +16°C° 0 mm 2 m/S 766 mmHg 63%
    09:00 +19°C° 0 mm 3 m/S 766 mmHg 55%
    10:00 +21°C° 0 mm 3 m/S 766 mmHg 48%
    11:00 +24°C° 0 mm 3 m/S 766 mmHg 40%
    12:00 +25°C° 0 mm 3 m/S 766 mmHg 36%
    13:00 +26°C° 0 mm 3 m/S 765 mmHg 32%
    14:00 +28°C° 0 mm 3 m/S 764 mmHg 28%
    15:00 +27°C° 0 mm 3 m/S 764 mmHg 28%
    16:00 +27°C° 0 mm 3 m/S 764 mmHg 28%
    17:00 +27°C° 0 mm 3 m/S 764 mmHg 28%
    18:00 +25°C° 0 mm 3 m/S 764 mmHg 35%
    19:00 +21°C° 0 mm 3 m/S 765 mmHg 42%
    20:00 +19°C° 0 mm 3 m/S 765 mmHg 48%
    21:00 +18°C° 0 mm 3 m/S 766 mmHg 55%
    22:00 +17°C° 0 mm 3 m/S 766 mmHg 61%
    23:00 +16°C° 0 mm 2 m/S 767 mmHg 67%

    27 März, Mittwoch

    Zeit Temperatur Niederschläge Wind Luftdruck Luftfeuchtigkeit
    00:00 +16°C° 0 mm 2 m/S 766 mmHg 70%
    01:00 +15°C° 0 mm 2 m/S 766 mmHg 72%
    02:00 +14°C° 0 mm 2 m/S 766 mmHg 74%
    03:00 +14°C° 0 mm 2 m/S 766 mmHg 74%
    04:00 +14°C° 0 mm 2 m/S 766 mmHg 74%
    05:00 +14°C° 0 mm 2 m/S 767 mmHg 74%
    06:00 +15°C° 0 mm 2 m/S 767 mmHg 70%
    07:00 +16°C° 0 mm 2 m/S 767 mmHg 65%
    08:00 +17°C° 0 mm 2 m/S 768 mmHg 60%
    09:00 +19°C° 0 mm 2 m/S 768 mmHg 53%
    10:00 +23°C° 0 mm 2 m/S 768 mmHg 46%
    11:00 +25°C° 0 mm 2 m/S 767 mmHg 39%
    12:00 +26°C° 0 mm 2 m/S 767 mmHg 35%
    13:00 +27°C° 0 mm 2 m/S 766 mmHg 31%
    14:00 +28°C° 0 mm 2 m/S 765 mmHg 26%
    15:00 +28°C° 0 mm 2 m/S 765 mmHg 26%
    16:00 +28°C° 0 mm 2 m/S 765 mmHg 26%
    17:00 +28°C° 0 mm 2 m/S 764 mmHg 25%
    18:00 +27°C° 0 mm 2 m/S 765 mmHg 30%
    19:00 +25°C° 0 mm 2 m/S 765 mmHg 34%
    20:00 +24°C° 0 mm 2 m/S 765 mmHg 38%
    21:00 +24°C° 0 mm 3 m/S 765 mmHg 42%
    22:00 +24°C° 0 mm 3 m/S 765 mmHg 46%
    23:00 +22°C° 0 mm 4 m/S 766 mmHg 50%

    28 März, Donnerstag

    Zeit Temperatur Niederschläge Wind Luftdruck Luftfeuchtigkeit
    00:00 +22°C° 0 mm 4 m/S 765 mmHg 52%
    01:00 +22°C° 0 mm 4 m/S 765 mmHg 54%
    02:00 +21°C° 0 mm 3 m/S 765 mmHg 57%
    03:00 +21°C° 0 mm 3 m/S 765 mmHg 61%
    04:00 +20°C° 0 mm 3 m/S 765 mmHg 65%
    05:00 +20°C° 0 mm 3 m/S 765 mmHg 68%
    06:00 +20°C° 0.1 mm 3 m/S 765 mmHg 70%
    07:00 +20°C° 0.1 mm 3 m/S 766 mmHg 72%
    08:00 +20°C° 0.1 mm 3 m/S 766 mmHg 73%
    09:00 +22°C° 0 mm 3 m/S 766 mmHg 63%
    10:00 +26°C° 0 mm 4 m/S 766 mmHg 53%
    11:00 +28°C° 0 mm 4 m/S 766 mmHg 42%
    12:00 +29°C° 0 mm 4 m/S 765 mmHg 39%
    13:00 +30°C° 0 mm 4 m/S 764 mmHg 36%
    14:00 +30°C° 0 mm 4 m/S 764 mmHg 32%
    15:00 +30°C° 0 mm 4 m/S 763 mmHg 32%
    16:00 +30°C° 0 mm 4 m/S 763 mmHg 32%
    17:00 +29°C° 0 mm 4 m/S 763 mmHg 32%
    18:00 +28°C° 0 mm 3 m/S 763 mmHg 35%
    19:00 +27°C° 0 mm 3 m/S 763 mmHg 38%
    20:00 +25°C° 0 mm 3 m/S 763 mmHg 41%
    21:00 +25°C° 0 mm 3 m/S 763 mmHg 45%
    22:00 +24°C° 0 mm 2 m/S 763 mmHg 49%
    23:00 +23°C° 0 mm 2 m/S 763 mmHg 52%

    29 März, Freitag

    Zeit Temperatur Niederschläge Wind Luftdruck Luftfeuchtigkeit
    00:00 +23°C° 0 mm 2 m/S 763 mmHg 55%
    01:00 +21°C° 0 mm 2 m/S 762 mmHg 58%
    02:00 +20°C° 0 mm 2 m/S 762 mmHg 61%
    03:00 +21°C° 0 mm 1 m/S 762 mmHg 64%
    04:00 +21°C° 0 mm 1 m/S 762 mmHg 66%
    05:00 +20°C° 0 mm 1 m/S 762 mmHg 69%
    06:00 +21°C° 0 mm 2 m/S 762 mmHg 66%
    07:00 +24°C° 0 mm 2 m/S 762 mmHg 63%
    08:00 +25°C° 0 mm 2 m/S 762 mmHg 59%
    09:00 +27°C° 0 mm 2 m/S 762 mmHg 53%
    10:00 +30°C° 0 mm 2 m/S 762 mmHg 46%
    11:00 +32°C° 0 mm 2 m/S 761 mmHg 39%
    12:00 +34°C° 0 mm 2 m/S 760 mmHg 35%
    13:00 +35°C° 0 mm 2 m/S 759 mmHg 31%
    14:00 +36°C° 0 mm 2 m/S 758 mmHg 27%
    15:00 +36°C° 0 mm 3 m/S 758 mmHg 28%
    16:00 +35°C° 0 mm 3 m/S 757 mmHg 30%
    17:00 +35°C° 0 mm 3 m/S 757 mmHg 31%
    18:00 +33°C° 0 mm 3 m/S 757 mmHg 37%
    19:00 +30°C° 0 mm 2 m/S 757 mmHg 44%
    20:00 +28°C° 0 mm 2 m/S 757 mmHg 50%
    21:00 +27°C° 0 mm 2 m/S 757 mmHg 52%
    22:00 +27°C° 0 mm 2 m/S 757 mmHg 55%
    23:00 +26°C° 0 mm 2 m/S 757 mmHg 57%
    Mehr zeigen